Dewpoint
12 12 12 11 10 11 10 7 7 7 8 7 9 8 8 8 7 7 6 7 8 8 8 7 7 7 8 8 9 9 8 8 5 3 -2 -4 -4 -4
13 12 12 12 11 12 11 10 9 8 8 9 8 8 8 8 7 6 6 5 7 8 8 7 6 7 8 9 8 8 8 7 5 2 -3 -3 -3 -3
12 12 12 12 12 12 11 10 10 9 7 9 7 7 7 7 7 8 7 7 8 8 7 6 6 7 7 8 9 9 8 7 4 0 -3 -3 -3 -3
12 12 12 12 12 11 11 10 10 9 9 8 7 8 7 7 7 8 7 7 8 7 7 7 7 7 7 8 8 8 7 7 5 -0 -3 -3 -3 -3
12 12 11 11 11 11 10 10 10 10 10 9 9 8 7 8 8 7 7 7 8 8 8 8 8 8 8 8 8 7 6 6 3 -2 -2 -3 -3 -1
11 10 10 10 10 10 10 10 9 9 9 9 8 9 9 8 8 8 8 8 8 8 8 8 8 8 8 8 7 5 5 5 1 -2 -2 -2 -3 -0
10 10 10 10 9 9 9 9 9 9 9 8 8 8 8 8 8 8 8 8 8 7 7 7 7 7 6 6 5 5 4 4 1 -1 -1 -2 -2 1
9 8 9 9 9 9 9 9 9 9 9 9 8 8 8 8 8 7 7 6 6 6 6 5 5 5 5 4 4 4 4 3 2 0 -1 -2 1 3
9 9 9 9 9 9 8 8 8 8 7 6 6 7 6 5 5 5 4 4 5 4 4 4 4 4 4 3 3 3 3 2 1 -1 -2 -2 3 4
8 7 7 7 6 6 5 5 4 6 6 6 5 5 5 6 5 5 5 4 3 3 4 3 3 3 4 3 3 3 2 2 0 -1 -1 -2 4 3
6 6 5 5 5 5 5 5 5 5 4 4 5 5 5 5 5 5 5 4 4 3 3 3 3 3 3 3 2 2 2 1 1 0 0 -1 3 3
-0 -1 -1 -1 -1 -0 -0 0 1 1 1 1 3 3 4 4 5 4 5 4 5 4 3 3 3 3 2 3 2 2 2 1 0 0 0 1 2 3
-3 -3 -4 -4 -4 -4 -5 -5 -4 -3 -2 -0 1 2 2 2 2 3 4 3 3 3 3 3 3 3 3 2 2 2 1 0 0 0 0 -1 2 3
-6 -7 -7 -6 -6 -6 -5 -4 -3 -2 -2 -2 -2 -2 -1 -0 1 2 2 2 2 2 2 2 1 2 2 2 1 1 0 -0 -0 -0 -1 -1 2 3
-12 -12 -13 -14 -14 -13 -12 -11 -8 -6 -6 -5 -3 -2 -1 0 0 1 1 2 1 1 1 1 1 1 1 1 1 0 -0 -0 -0 -5 -3 -2 1 2
-13 -13 -14 -13 -14 -13 -12 -11 -10 -11 -10 -7 -5 -3 -2 -1 -1 -0 -0 -0 -0 0 0 0 0 0 -0 -1 -0 -0 -1 -1 -1 -6 -1 -2 0 1
-13 -14 -15 -16 -18 -18 -18 -16 -15 -13 -11 -9 -8 -5 -3 -2 -2 -2 -1 -1 -1 -1 -1 -1 -1 -1 -1 -1 -1 -1 -1 -1 -1 -10 -2 -3 -1 0
-15 -17 -19 -20 -20 -21 -23 -23 -18 -14 -12 -11 -10 -7 -5 -4 -4 -3 -3 -2 -2 -2 -1 -1 -2 -2 -2 -2 -2 -2 -2 -2 -1 -3 -14 -8 -2 -0
-21 -21 -22 -23 -24 -25 -24 -22 -19 -15 -12 -10 -8 -5 -5 -5 -4 -4 -3 -3 -3 -3 -3 -2 -2 -3 -3 -3 -2 -2 -3 -2 -2 -2 -10 -14 -3 -0
-16 -16 -16 -16 -16 -17 -17 -17 -15 -12 -10 -8 -7 -6 -6 -5 -5 -5 -4 -4 -4 -4 -4 -4 -3 -3 -3 -3 -3 -3 -3 -3 -3 -3 -12 -14 -13 -2
-19 -18 -16 -15 -15 -14 -13 -12 -11 -9 -8 -7 -6 -7 -6 -6 -6 -5 -5 -5 -4 -4 -4 -5 -4 -4 -4 -4 -4 -4 -4 -4 -4 -6 -14 -12 -14 -12
-21 -19 -16 -13 -10 -10 -10 -10 -9 -8 -7 -8 -7 -7 -7 -6 -6 -5 -5 -6 -5 -5 -5 -5 -5 -5 -5 -5 -5 -4 -4 -5 -5 -6 -9 -12 -13 -14
-20 -19 -17 -11 -9 -9 -9 -9 -9 -8 -8 -8 -8 -7 -7 -7 -7 -6 -6 -6 -6 -6 -6 -6 -6 -6 -6 -5 -5 -5 -5 -6 -6 -6 -10 -9 -11 -12
Wind_Speed
45 43 39 36 36 38 39 40 36 27 27 25 25 21 20 21 19 19 22 23 28 29 29 26 26 29 31 33 32 34 36 35 29 29 30 30 27 26
49 40 40 40 41 42 41 38 40 38 28 25 28 26 26 25 25 31 34 35 33 31 31 32 34 31 32 33 34 34 34 32 28 28 30 29 26 24
35 39 39 42 42 41 42 38 38 36 38 37 36 35 34 32 32 33 29 32 32 32 29 31 34 29 33 36 37 35 33 31 29 27 27 26 25 22
29 31 38 38 44 40 36 29 33 34 41 41 43 41 41 42 43 28 30 33 35 33 35 40 41 36 38 34 35 35 35 32 27 28 26 25 22 20
30 37 34 30 33 34 23 28 29 33 32 33 37 38 39 30 26 28 30 33 36 38 41 43 37 38 34 36 37 36 36 30 26 25 23 22 20 18
17 12 12 14 19 20 23 25 22 23 26 29 27 26 27 31 35 36 38 38 38 39 37 35 36 35 36 38 39 37 33 28 24 23 21 19 17 17
9 7 9 10 9 10 13 16 19 20 23 25 26 27 29 28 29 32 34 33 30 29 31 30 30 33 35 37 37 35 30 24 21 19 19 18 16 16
5 4 6 8 11 13 17 20 22 20 25 23 23 20 17 18 20 21 20 23 28 26 27 28 28 28 31 34 34 30 26 21 20 20 20 17 14 13
9 7 11 12 11 11 13 15 14 13 14 14 16 16 18 18 18 18 20 22 22 23 24 27 25 23 21 26 28 26 22 19 17 20 17 15 14 13
5 5 5 4 4 5 7 9 10 11 13 15 16 16 16 17 18 19 20 18 20 23 21 23 21 21 18 21 23 22 22 21 18 19 16 14 15 13
3 3 4 6 8 10 12 14 15 14 16 15 17 18 18 19 19 20 19 20 21 22 22 21 24 22 22 23 24 23 24 23 22 18 18 17 18 15
3 5 7 8 9 12 12 13 15 16 17 19 18 19 20 20 20 21 20 23 24 25 24 21 23 23 21 26 26 28 28 25 23 20 19 20 17 17
3 4 5 6 7 9 11 12 14 15 16 18 18 18 18 18 20 23 23 25 26 27 25 20 23 26 29 22 18 28 29 25 23 20 17 17 20 20
5 5 6 8 9 10 11 12 14 15 16 18 18 19 19 19 20 22 24 24 26 27 29 29 22 26 29 30 28 23 19 24 23 19 15 21 22 24
3 5 6 8 9 10 10 12 14 15 16 18 19 19 19 20 21 21 21 22 24 24 27 30 30 29 26 27 27 28 24 23 18 12 18 25 23 26
8 9 10 12 13 14 14 15 16 18 18 18 18 19 19 20 20 20 23 22 21 22 23 25 26 30 29 27 27 25 21 15 17 16 22 25 21 26
10 11 11 12 14 15 16 17 18 19 19 18 18 18 19 20 21 20 20 20 23 23 24 26 29 28 27 27 25 23 21 19 16 18 22 22 22 25
14 15 16 17 18 19 20 20 20 21 21 22 21 20 19 20 22 20 20 21 22 22 24 24 26 26 26 27 24 22 21 19 18 20 22 24 25 22
16 17 19 19 20 20 21 20 21 21 21 20 20 19 19 19 20 20 22 23 23 22 23 25 26 27 27 29 23 24 23 21 20 23 20 25 26 22
18 20 20 21 22 22 21 21 20 20 20 20 20 20 20 20 20 22 21 23 22 22 23 24 26 28 30 31 28 26 25 22 23 22 23 25 26 26
20 20 21 22 22 21 21 21 21 21 21 21 21 20 19 19 21 22 22 22 21 22 24 26 22 21 25 28 24 23 24 22 23 23 22 24 27 30
20 21 21 20 21 21 22 22 22 21 21 21 21 21 21 20 21 21 21 22 21 21 23 22 21 21 24 28 28 26 24 23 22 22 19 23 24 23
21 22 21 21 21 22 22 22 22 23 22 22 22 21 20 22 21 21 23 21 20 20 20 22 22 20 22 28 26 24 23 25 25 25 23 22 19 21
Wind_Direction
228 233 238 240 241 246 239 235 238 238 240 247 246 241 254 263 274 277 275 282 280 271 284 291 293 298 292 295 293 293 291 283 279 289 294 297 300 301
233 235 245 236 247 245 246 239 232 231 239 237 243 246 252 263 277 277 277 276 280 273 281 292 292 294 290 287 294 289 287 280 276 285 290 295 298 299
238 237 245 245 248 247 238 232 227 244 241 244 254 254 257 263 278 278 268 272 270 273 278 292 296 293 297 288 287 281 278 270 271 278 282 288 292 293
249 254 247 252 243 236 240 231 252 246 244 248 254 259 260 267 273 262 269 271 267 272 281 288 290 286 295 285 282 276 274 270 267 275 281 286 288 282
251 244 236 224 223 238 232 251 255 244 250 252 265 265 269 266 259 272 273 270 271 275 286 290 282 286 285 282 278 271 269 265 264 273 278 282 281 268
241 230 240 250 259 257 252 254 264 267 266 265 265 263 258 271 278 279 276 277 280 283 285 287 278 280 280 279 272 263 261 258 264 273 274 274 275 264
225 231 247 246 247 252 261 264 258 259 262 263 264 270 271 276 283 288 283 287 288 287 289 291 289 284 277 272 261 263 257 255 258 268 270 273 266 255
179 182 219 234 244 239 241 252 254 255 253 255 264 259 262 274 278 282 284 290 295 294 295 295 296 292 282 268 260 256 252 250 258 266 266 268 251 243
164 199 209 216 226 242 260 261 265 266 267 271 275 280 282 286 288 287 292 294 293 295 295 300 298 295 284 265 255 252 251 251 260 261 261 261 245 245
176 200 225 225 230 244 252 270 271 271 270 269 273 278 280 281 286 287 291 297 304 304 298 291 295 290 275 253 242 239 248 253 247 252 253 251 235 237
161 204 241 260 264 270 268 274 278 281 285 287 280 276 274 276 279 281 286 287 290 299 299 289 286 280 262 246 242 245 251 247 246 241 241 236 224 220
231 247 255 265 273 277 279 282 283 283 279 276 277 280 279 279 282 282 282 281 284 285 287 277 277 271 257 253 250 250 248 244 242 237 232 217 220 204
242 262 280 287 288 295 298 294 293 289 289 286 284 281 283 288 287 287 280 277 274 271 266 272 268 262 252 253 258 252 246 242 242 236 226 230 215 199
281 299 297 294 296 299 299 294 292 295 295 296 297 294 288 283 280 274 277 277 275 271 269 267 268 269 258 252 255 256 253 245 241 230 220 225 211 201
340 331 322 319 319 317 311 305 296 294 298 301 302 300 296 290 284 285 282 279 278 274 270 265 265 260 250 252 257 260 252 242 227 217 218 214 206 204
347 345 342 340 338 335 330 326 321 320 318 315 311 304 295 294 293 289 290 286 283 273 270 264 263 261 250 248 260 261 248 230 212 214 212 214 207 205
339 335 332 328 325 319 315 313 313 313 311 309 306 301 294 291 290 283 285 287 281 278 271 272 263 257 251 245 257 249 241 230 212 208 222 215 215 201
329 324 322 320 316 312 307 305 304 304 306 306 304 302 299 298 295 293 286 290 287 280 272 273 263 256 245 240 246 241 232 222 216 205 219 209 215 208
318 316 314 311 308 305 301 299 297 298 300 305 306 303 304 297 294 291 287 287 286 282 277 270 264 250 241 241 239 229 225 220 220 210 217 217 208 207
310 307 304 301 300 300 299 299 296 297 302 304 307 307 302 299 296 289 284 283 283 284 281 273 264 252 243 244 242 234 220 215 217 204 216 214 210 209
305 299 295 294 295 296 295 296 295 296 301 301 300 303 302 299 294 287 283 281 282 277 276 272 273 267 252 243 234 223 215 214 211 207 216 212 210 210
302 296 294 291 290 291 292 292 291 291 294 297 300 303 301 295 290 290 286 280 275 272 275 276 271 258 242 231 227 221 214 210 204 208 211 220 213 210
302 298 293 290 291 291 292 291 291 289 290 292 297 298 301 299 289 287 286 281 273 272 269 267 260 250 238 228 227 221 208 197 196 199 201 206 212 212
Height
1463 1470 1470 1474 1475 1479 1481 1486 1489 1490 1492 1494 1498 1501 1504 1505 1504 1505 1504 1505 1506 1506 1506 1504 1502 1500 1499 1497 1494 1493 1490 1487 1488 1486 1483 1481 1477 1475
1455 1460 1462 1464 1468 1470 1472 1474 1479 1481 1481 1486 1489 1491 1495 1498 1498 1498 1496 1498 1497 1498 1497 1496 1493 1490 1489 1488 1487 1485 1483 1481 1480 1479 1477 1475 1473 1471
1446 1450 1453 1455 1458 1460 1463 1464 1470 1474 1475 1477 1480 1482 1485 1488 1489 1489 1489 1489 1489 1489 1488 1488 1485 1482 1480 1479 1477 1476 1474 1472 1472 1471 1468 1467 1464 1465
1440 1444 1446 1448 1448 1451 1455 1461 1466 1467 1469 1470 1471 1474 1477 1479 1481 1481 1481 1481 1480 1481 1481 1479 1477 1474 1471 1469 1468 1468 1466 1465 1464 1464 1462 1461 1459 1459
1433 1435 1437 1437 1443 1446 1452 1457 1458 1460 1462 1462 1462 1466 1469 1471 1472 1471 1471 1472 1471 1471 1470 1468 1466 1464 1462 1461 1460 1458 1459 1459 1458 1457 1456 1455 1453 1453
1428 1433 1434 1436 1442 1446 1447 1451 1453 1453 1455 1456 1455 1457 1461 1462 1462 1462 1462 1462 1462 1462 1459 1457 1455 1454 1453 1453 1452 1452 1452 1452 1453 1452 1450 1448 1447 1447
1427 1430 1433 1436 1439 1441 1443 1446 1448 1449 1451 1451 1452 1453 1454 1454 1453 1453 1452 1452 1451 1450 1448 1448 1446 1446 1445 1443 1443 1445 1447 1446 1447 1444 1444 1443 1443 1442
1425 1427 1432 1434 1436 1437 1440 1441 1443 1443 1444 1445 1445 1446 1447 1447 1448 1447 1446 1444 1442 1442 1440 1438 1438 1438 1439 1437 1438 1440 1442 1442 1441 1440 1442 1440 1439 1438
1424 1425 1429 1431 1432 1433 1435 1439 1438 1440 1441 1441 1443 1442 1442 1442 1442 1441 1440 1438 1437 1438 1436 1433 1433 1430 1428 1432 1436 1435 1437 1438 1437 1439 1438 1437 1437 1436
1422 1426 1428 1430 1431 1432 1433 1435 1435 1435 1436 1438 1437 1437 1437 1436 1436 1435 1434 1432 1432 1432 1429 1427 1428 1426 1424 1426 1430 1430 1435 1433 1433 1435 1434 1433 1434 1436
1423 1425 1427 1429 1429 1429 1430 1430 1431 1431 1431 1431 1431 1431 1431 1431 1430 1429 1428 1427 1426 1426 1424 1422 1424 1423 1423 1423 1425 1426 1428 1428 1429 1429 1430 1430 1431 1433
1422 1423 1424 1426 1425 1426 1425 1424 1425 1426 1425 1425 1425 1425 1425 1424 1424 1422 1421 1422 1421 1419 1419 1419 1419 1420 1420 1420 1420 1420 1421 1422 1423 1424 1426 1425 1427 1429
1421 1421 1422 1422 1422 1423 1420 1419 1420 1420 1419 1419 1418 1418 1418 1416 1417 1417 1415 1415 1414 1414 1414 1413 1413 1414 1415 1414 1414 1414 1414 1415 1417 1418 1419 1420 1423 1426
1420 1419 1420 1420 1419 1417 1416 1417 1416 1415 1413 1412 1410 1410 1409 1409 1410 1410 1409 1408 1406 1407 1408 1408 1408 1410 1410 1409 1409 1409 1409 1410 1411 1412 1413 1416 1420 1422
1418 1417 1416 1415 1413 1412 1412 1412 1411 1409 1406 1405 1404 1403 1403 1402 1403 1403 1402 1401 1400 1399 1400 1401 1402 1403 1404 1404 1404 1404 1406 1406 1407 1407 1411 1413 1416 1419
1412 1411 1410 1409 1408 1406 1406 1406 1405 1402 1400 1400 1399 1398 1397 1397 1397 1397 1395 1395 1392 1392 1393 1394 1395 1396 1397 1398 1399 1400 1401 1402 1403 1406 1407 1411 1413 1416
1409 1408 1407 1405 1404 1404 1403 1402 1401 1399 1397 1396 1394 1393 1392 1391 1390 1389 1388 1388 1386 1386 1387 1388 1389 1390 1390 1393 1394 1395 1396 1397 1399 1404 1404 1407 1410 1413
1404 1402 1401 1399 1399 1399 1398 1398 1396 1395 1393 1390 1389 1388 1387 1385 1384 1382 1382 1381 1379 1379 1379 1380 1382 1383 1385 1386 1388 1390 1392 1394 1395 1399 1403 1406 1409 1410
1399 1398 1397 1396 1396 1395 1394 1392 1391 1390 1387 1386 1384 1382 1381 1380 1378 1377 1375 1375 1374 1373 1373 1373 1374 1377 1378 1380 1382 1384 1387 1391 1392 1394 1399 1403 1407 1410
1395 1394 1393 1392 1391 1390 1388 1387 1386 1384 1382 1380 1378 1377 1375 1374 1372 1371 1370 1369 1368 1367 1366 1366 1367 1369 1371 1373 1376 1379 1382 1385 1387 1390 1396 1399 1404 1408
1391 1390 1389 1387 1386 1384 1383 1381 1380 1378 1376 1375 1373 1371 1369 1367 1366 1365 1364 1363 1362 1360 1359 1359 1361 1363 1366 1369 1372 1373 1376 1380 1383 1387 1392 1396 1400 1402
1386 1384 1382 1381 1380 1378 1377 1375 1373 1372 1371 1369 1367 1365 1363 1361 1360 1358 1357 1355 1354 1354 1353 1354 1355 1357 1359 1361 1364 1368 1371 1375 1379 1384 1389 1394 1396 1397
1380 1378 1376 1375 1373 1371 1369 1368 1367 1365 1364 1362 1361 1359 1357 1355 1353 1351 1349 1348 1347 1347 1347 1348 1350 1351 1353 1356 1359 1362 1366 1370 1374 1379 1385 1389 1393 1397